sat.trackr.live / text

‹ back to catalog

TRANSPORTER-16 OBJECT Z

NORAD 68439 · 2026-067Z

PAYLOAD ACTIVE UNKNOWN

§ Identity

Operator
Country
TBD
Launch date
2026-03-30
Launch site
AFWTR
Launch vehicle
Mass (kg)
RCS (m²)

External: N2YO · Heavens-Above · Gunter

§ Orbital elements

Epoch: 2026-05-25T03:09:58.715712Z

Period
94.81 min
Inclination
97.4502°
Eccentricity
0.0004717
Mean motion
15.18790835 rev/d
Perigee alt
506.2 km
Apogee alt
512.7 km
Semi-major
6,887.6 km
B*
5.7305e-4
RAAN
103.9290°
Arg perigee
116.6181°
Mean anomaly
243.5537°
Rev number
844

§ Raw data

TRANSPORTER-16 OBJECT Z1 68439U 26067Z   26145.13192958  .00011864  00000+0  57305-3 0  99992 68439  97.4502 103.9290 0004717 116.6181 243.5537 15.18790835  8448

JSON: /api/v1/satellites/68439 · /tle

For live sub-satellite position, see the globe view (requires WebGL).

§ Visibility from observer

Set your observer location to see the next 7 days of passes ≥ 10°. The values pass through the URL so the page stays shareable.

No JS? Fill the form by hand. The geolocation button needs JavaScript.